SPKEA EPOD-EPKI

Flight info

Callsign SPKEA
Flight time 0h 19m
Altitude 3500
Route DCT EPODN DCT 535348N0203422E 535838N0204428E/N0090A015 DCT
Aircraft C172/L-SBDGR/C

Departure

Time 2026-05-05 12:58
Airport Olsztyn-Dajtki Airfield (EPOD)

Arrival

Time 2026-05-05 13:17
Airport Kikity (EPKI)
Time Latitude Longitude Altitude Speed Heading
2026-05-05 12:44 53.77478 20.41749 433 ft 0 kts 338°
2026-05-05 12:51 53.77484 20.41746 433 ft 3 kts 341°
2026-05-05 12:51 53.77480 20.41676 433 ft 12 kts 250°
2026-05-05 12:52 53.77451 20.41553 436 ft 11 kts 246°
2026-05-05 12:52 53.77427 20.41408 435 ft 14 kts 261°
2026-05-05 12:52 53.77434 20.41254 434 ft 7 kts 269°
2026-05-05 12:52 53.77423 20.41180 434 ft 8 kts 197°
2026-05-05 12:53 53.77418 20.41179 434 ft 0 kts 183°
2026-05-05 12:56 53.77415 20.41178 434 ft 3 kts 184°
2026-05-05 12:57 53.77395 20.41212 434 ft 8 kts 98°
2026-05-05 12:57 53.77395 20.41218 434 ft 0 kts 95°
2026-05-05 12:57 53.77393 20.41271 434 ft 18 kts 91°
2026-05-05 12:57 53.77371 20.41718 442 ft 57 kts 91°
2026-05-05 12:58 53.77322 20.42422 605 ft 62 kts 89°
2026-05-05 12:58 53.77296 20.43171 773 ft 65 kts 86°
2026-05-05 12:58 53.77289 20.43930 949 ft 65 kts 82°
2026-05-05 12:58 53.77294 20.44721 1081 ft 67 kts 79°
2026-05-05 12:59 53.77570 20.45302 1177 ft 66 kts 22°
2026-05-05 12:59 53.78039 20.45426 1265 ft 71 kts
2026-05-05 12:59 53.78529 20.45379 1407 ft 70 kts
2026-05-05 13:00 53.79549 20.45688 1519 ft 80 kts 19°
2026-05-05 13:00 53.80087 20.46030 1512 ft 82 kts 22°
2026-05-05 13:01 53.81788 20.46830 1868 ft 87 kts 14°
2026-05-05 13:01 53.82383 20.47048 2012 ft 89 kts
2026-05-05 13:01 53.82984 20.47282 2147 ft 85 kts 17°
2026-05-05 13:01 53.83557 20.47522 2314 ft 84 kts 20°
2026-05-05 13:02 53.84070 20.48031 2444 ft 89 kts 34°
2026-05-05 13:02 53.84586 20.48657 2551 ft 94 kts 38°
2026-05-05 13:02 53.85100 20.49440 2532 ft 103 kts 43°
2026-05-05 13:02 53.85622 20.50296 2528 ft 105 kts 46°
2026-05-05 13:03 53.86145 20.51193 2530 ft 105 kts 43°
2026-05-05 13:03 53.86669 20.52053 2535 ft 105 kts 46°
2026-05-05 13:03 53.87147 20.52983 2539 ft 104 kts 49°
2026-05-05 13:03 53.87614 20.53905 2540 ft 101 kts 45°
2026-05-05 13:04 53.88103 20.54723 2546 ft 97 kts 43°
2026-05-05 13:04 53.88583 20.55551 2550 ft 97 kts 45°
2026-05-05 13:04 53.89072 20.56337 2558 ft 97 kts 39°
2026-05-05 13:04 53.89579 20.57102 2549 ft 97 kts 42°
2026-05-05 13:05 53.90023 20.57954 2539 ft 94 kts 49°
2026-05-05 13:05 53.90434 20.58810 2514 ft 95 kts 49°
2026-05-05 13:05 53.90900 20.59668 2383 ft 102 kts 44°
2026-05-05 13:05 53.91405 20.60523 2245 ft 104 kts 43°
2026-05-05 13:06 53.91861 20.61452 2079 ft 101 kts 52°
2026-05-05 13:06 53.92306 20.62344 1901 ft 97 kts 46°
2026-05-05 13:06 53.92739 20.63217 1717 ft 95 kts 50°
2026-05-05 13:06 53.93138 20.64095 1550 ft 92 kts 52°
2026-05-05 13:07 53.93470 20.65007 1518 ft 90 kts 53°
2026-05-05 13:07 53.93848 20.65859 1522 ft 91 kts 49°
2026-05-05 13:07 53.94272 20.66676 1524 ft 93 kts 46°
2026-05-05 13:07 53.94710 20.67494 1519 ft 90 kts 46°
2026-05-05 13:08 53.95081 20.68304 1517 ft 85 kts 53°
2026-05-05 13:08 53.95410 20.69132 1526 ft 88 kts 51°
2026-05-05 13:08 53.95810 20.69975 1531 ft 95 kts 48°
2026-05-05 13:08 53.96244 20.70852 1524 ft 99 kts 49°
2026-05-05 13:09 53.96663 20.71810 1530 ft 100 kts 51°
2026-05-05 13:09 53.97097 20.72733 1525 ft 100 kts 51°
2026-05-05 13:09 53.97498 20.73675 1517 ft 94 kts 53°
2026-05-05 13:09 53.97783 20.74628 1515 ft 91 kts 73°
2026-05-05 13:10 53.97897 20.75671 1517 ft 89 kts 75°
2026-05-05 13:10 53.97999 20.76708 1517 ft 88 kts 74°
2026-05-05 13:10 53.98125 20.77759 1520 ft 92 kts 73°
2026-05-05 13:10 53.98289 20.78815 1522 ft 93 kts 70°
2026-05-05 13:11 53.98472 20.79883 1523 ft 95 kts 71°
2026-05-05 13:11 53.98607 20.80994 1523 ft 97 kts 75°
2026-05-05 13:11 53.98714 20.82127 1521 ft 94 kts 78°
2026-05-05 13:11 53.98800 20.83209 1477 ft 92 kts 76°
2026-05-05 13:12 53.98863 20.84277 1349 ft 92 kts 85°
2026-05-05 13:12 53.98784 20.85376 1154 ft 96 kts 97°
2026-05-05 13:12 53.98555 20.86451 888 ft 101 kts 106°
2026-05-05 13:12 53.98295 20.87616 589 ft 103 kts 108°
2026-05-05 13:13 53.98059 20.88611 776 ft 80 kts 107°
2026-05-05 13:13 53.97849 20.89458 989 ft 74 kts 103°
2026-05-05 13:13 53.97684 20.90254 1193 ft 72 kts 103°
2026-05-05 13:13 53.97368 20.90906 1352 ft 77 kts 154°
2026-05-05 13:14 53.96817 20.90770 1452 ft 87 kts 197°
2026-05-05 13:14 53.96272 20.90337 1524 ft 85 kts 228°
2026-05-05 13:14 53.96180 20.89461 1534 ft 76 kts 298°
2026-05-05 13:14 53.96414 20.88648 1533 ft 78 kts 300°
2026-05-05 13:15 53.96643 20.87690 1441 ft 93 kts 297°
2026-05-05 13:15 53.96891 20.86664 1443 ft 94 kts 298°
2026-05-05 13:15 53.97149 20.85636 1446 ft 96 kts 300°
2026-05-05 13:15 53.97438 20.84581 1434 ft 99 kts 301°
2026-05-05 13:16 53.97800 20.83641 1436 ft 88 kts 333°
2026-05-05 13:16 53.98332 20.83676 1446 ft 73 kts 31°
2026-05-05 13:16 53.98782 20.84066 1363 ft 71 kts 33°
2026-05-05 13:16 53.98987 20.84790 1257 ft 76 kts 101°
2026-05-05 13:17 53.98735 20.85687 1017 ft 84 kts 106°
2026-05-05 13:17 53.98535 20.86556 748 ft 78 kts 104°
2026-05-05 13:17 53.98349 20.87384 550 ft 64 kts 109°
2026-05-05 13:17 53.98227 20.87908 569 ft 27 kts 107°
2026-05-05 13:18 53.98174 20.88162 578 ft 18 kts 109°
2026-05-05 13:18 53.98201 20.88244 580 ft 1 kts 97°
2026-05-05 13:18 53.98193 20.88269 581 ft 0 kts 203°